K0QMS Weather Reports


Display with metric or nautical units.
time (UTC)temp
F
wind
direction
speed
MPH
gust
MPH
rain 1hr
in
rain 24hr
in
rain mn
in
humidity
%
barometer
mb
20260504002305 0 0 0.0 0.0 0.00 0.00 0.00 100
20260504001315 0 0 0.0 0.0 0.00 0.00 0.00 100
20260504000321 83 292 3.0 3.0 0.00 0.00 0.00 13
20260503235320 0 0 0.0 0.0 0.00 0.00 0.00 100
20260503235221 0 0 0.0 0.0 0.00 0.00 0.00 100
20260503234220 0 0 0.0 0.0 0.00 0.00 0.00 100
20260503233221 84 225 4.0 4.0 0.00 0.00 0.00 12
20260503232219 0 0 0.0 0.0 0.00 0.00 0.00 100
20260503230321 0 0 0.0 0.0 0.00 0.00 0.00 100
20260503225321 0 0 0.0 0.0 0.00 0.00 0.00 100
20260503224319 0 0 0.0 0.0 0.00 0.00 0.00 100
20260503223320 0 0 0.0 0.0 0.00 0.00 0.00 100
20260503222419 0 0 0.0 0.0 0.00 0.00 0.00 100
20260503221421 0 0 0.0 0.0 0.00 0.00 0.00 100
20260503220421 0 0 0.0 0.0 0.00 0.00 0.00 100
20260503214519 0 0 0.0 0.0 0.00 0.00 0.00 100
20260503213521 88 202 9.0 9.0 0.00 0.00 0.00 15
20260503211520 0 0 0.0 0.0 0.00 0.00 0.00 100
20260503211420 0 0 0.0 0.0 0.00 0.00 0.00 100
20260503210517 87 225 9.0 9.0 0.00 0.00 0.00 15
20260503205521 0 0 0.0 0.0 0.00 0.00 0.00 100
20260503204518 0 0 0.0 0.0 0.00 0.00 0.00 100
20260503201717 0 0 0.0 0.0 0.00 0.00 0.00 100
20260503195731 0 0 0.0 0.0 0.00 0.00 0.00 100
20260503194730 0 0 0.0 0.0 0.00 0.00 0.00 100
20260503193732 0 0 0.0 0.0 0.00 0.00 0.00 100
20260503192733 0 0 0.0 0.0 0.00 0.00 0.00 100
20260503191830 86 22 0.0 0.0 0.00 0.00 0.00 27
20260503190830 0 0 0.0 0.0 0.00 0.00 0.00 100
20260503184930 83 90 0.0 0.0 0.00 0.00 0.00 29
20260503183931 82 360 0.0 0.0 0.00 0.00 0.00 31
20260503183029 0 0 0.0 0.0 0.00 0.00 0.00 100
20260503182031 0 0 0.0 0.0 0.00 0.00 0.00 100
20260503181031 0 0 0.0 0.0 0.00 0.00 0.00 100
20260503180130 0 0 0.0 0.0 0.00 0.00 0.00 100
20260503175132 0 0 0.0 0.0 0.00 0.00 0.00 100
20260503173232 0 0 0.0 0.0 0.00 0.00 0.00 100
20260503172232 0 0 0.0 0.0 0.00 0.00 0.00 100
20260503171329 0 0 0.0 0.0 0.00 0.00 0.00 100
20260503150819 0 0 0.0 0.0 0.00 0.00 0.00 100
20260503130919 0 0 0.0 0.0 0.00 0.00 0.00 100
20260503110119 0 0 0.0 0.0 0.00 0.00 0.00 100
20260503100220 0 0 0.0 0.0 0.00 0.00 0.00 100
20260503090434 0 0 0.0 0.0 0.00 0.00 0.00 100
20260503081517 0 0 0.0 0.0 0.00 0.00 0.00 100
20260503080527 0 0 0.0 0.0 0.00 0.00 0.00 100
20260503072823 71 270 0.0 0.0 0.00 0.00 0.00 38
20260503071825 0 0 0.0 0.0 0.00 0.00 0.00 100
20260503070825 0 0 0.0 0.0 0.00 0.00 0.00 100
20260503054216 73 315 3.0 3.0 0.00 0.00 0.00 35
20260503053217 74 315 4.0 4.0 0.00 0.00 0.00 34
20260503052219 74 292 2.0 3.0 0.00 0.00 0.00 34
20260503051218 75 263 1.0 3.0 0.00 0.00 0.00 34
20260503044317 76 135 0.0 0.0 0.00 0.00 0.00 33
20260503043316 76 124 0.0 0.0 0.00 0.00 0.00 32
20260503042319 76 225 0.0 0.0 0.00 0.00 0.00 32
20260503041416 76 34 0.0 1.0 0.00 0.00 0.00 31
20260503040420 76 202 0.0 0.0 0.00 0.00 0.00 30
20260503034518 77 180 0.0 0.0 0.00 0.00 0.00 30
20260503033519 77 180 3.0 3.0 0.00 0.00 0.00 30
20260503031617 0 0 0.0 0.0 0.00 0.00 0.00 100
20260503030618 0 0 0.0 0.0 0.00 0.00 0.00 100
20260503025618 0 0 0.0 0.0 0.00 0.00 0.00 100
20260503024717 0 0 0.0 0.0 0.00 0.00 0.00 100
20260503022817 0 0 0.0 0.0 0.00 0.00 0.00 100
20260503021817 0 0 0.0 0.0 0.00 0.00 0.00 100
20260503020818 0 0 0.0 0.0 0.00 0.00 0.00 100
20260503015818 0 0 0.0 0.0 0.00 0.00 0.00 100
20260503014917 0 0 0.0 0.0 0.00 0.00 0.00 100
20260503013918 0 0 0.0 0.0 0.00 0.00 0.00 100
20260503012921 0 0 0.0 0.0 0.00 0.00 0.00 100
20260503011918 0 0 0.0 0.0 0.00 0.00 0.00 100
20260503010919 0 0 0.0 0.0 0.00 0.00 0.00 100
20260503005920 0 0 0.0 0.0 0.00 0.00 0.00 100
20260503004020 0 0 0.0 0.0 0.00 0.00 0.00 100